Flag for France Weather past 2 weeks in Bastia, Corsica, France

77 °F

Passing clouds.

Feels Like: 79 °F
Forecast: 60 / 70 °F
Wind: 3 mph from North

Location: Bastia Airport

Current Time: Oct 7, 2015 at 12:18:54 PM

Latest Report: Oct 7, 2015 at 12:00 PM

Visibility: N/A

Pressure: 29.80 "Hg

Humidity: 57%

Dew point: 61 °F

Location of BastiaLocation

Historic Weather in Bastia — Graph


Bastia temperature yesterday

Maximum temperature yesterday: 77 °F (at 2:00 PM)
Minimum temperature yesterday: 61 °F (at 7:00 AM)
Average temperature yesterday: 68 °F

Past Weeks' High & Low Weather Summary

High79 °F (Sep 23, 1:00 PM)100% (Oct 1, 1:00 AM)30.21 "Hg (Oct 1, 1:00 AM)
Low57 °F (Sep 24, 12:00 AM)29% (Sep 23, 2:00 PM)29.68 "Hg (Sep 23, 12:00 PM)
Average67 °F71%30.00 "Hg
* Reported Sep 22 11:00 AM — Oct 7 11:00 AM, Bastia, Weather by CustomWeather, © 2015

Note: Actual official high and low records may vary slightly from our data, if they occured in-between our weather recording intervals... More about our weather records


Bastia weather history for previous 24 hours

Time TempWeatherWind HumidityBarometerVisibility
11:00 AM
Wed, Oct 7
73 °FPassing clouds.5 mph61%29.80 "HgN/A
10:30 AM72 °FScattered clouds.8 mph61%29.80 "HgN/A
10:00 AM72 °FPartly sunny.2 mph65%29.80 "HgN/A
9:30 AM72 °FPartly sunny.5 mph73%29.77 "HgN/A
8:30 AM68 °FScattered clouds.6 mph78%29.77 "HgN/A
8:00 AM68 °FPassing clouds.1 mph78%29.77 "HgN/A
7:30 AM66 °FPassing clouds.7 mph83%29.77 "HgN/A
7:05 AM66 °FPassing clouds.5 mph83%29.77 "HgN/A
6:30 AM66 °FPassing clouds.3 mph83%29.74 "HgN/A
6:00 AM66 °FPassing clouds.12 mph83%29.74 "HgN/A
5:30 AM64 °FPassing clouds.7 mph88%29.74 "HgN/A
5:00 AM66 °FPartly cloudy.3 mph88%29.74 "HgN/A
4:30 AM66 °FThunderstorms. Partly cloudy.5 mph94%29.77 "HgN/A
4:00 AM64 °FThundershowers. Partly cloudy.5 mph94%29.77 "HgN/A
3:30 AM64 °FThundershowers. Passing clouds.3 mph94%29.77 "HgN/A
3:00 AM63 °FThundershowers. Overcast.5 mph100%29.77 "Hg6 mi
2:30 AM63 °FMild.3 mph100%29.77 "HgN/A
2:00 AM63 °FMild.5 mph100%29.77 "HgN/A
1:30 AM64 °FPassing clouds.3 mph94%29.77 "HgN/A
1:00 AM64 °FPassing clouds.5 mph94%29.77 "Hg6 mi
12:30 AM63 °FPassing clouds.1 mph100%29.77 "Hg6 mi
12:00 AM64 °FPassing clouds.No wind94%29.80 "Hg6 mi
11:30 PM
Tue, Oct 6
64 °FPassing clouds.3 mph94%29.77 "Hg6 mi
11:00 PM64 °FPassing clouds.3 mph94%29.80 "Hg6 mi
10:30 PM64 °FPassing clouds.2 mph100%29.80 "Hg6 mi
10:00 PM66 °FPassing clouds.3 mph94%29.80 "Hg6 mi
9:30 PM66 °FPassing clouds.1 mph94%29.80 "Hg6 mi
9:00 PM66 °FPassing clouds.2 mph94%29.80 "Hg6 mi
8:30 PM68 °FPassing clouds.2 mph94%29.80 "Hg6 mi
8:00 PM68 °FPassing clouds.No wind94%29.77 "HgN/A
7:30 PM70 °FPassing clouds.No wind88%29.77 "HgN/A
7:00 PM72 °FPassing clouds.2 mph83%29.77 "HgN/A
6:30 PM73 °FScattered clouds.3 mph78%29.77 "HgN/A
6:00 PM75 °FScattered clouds.3 mph74%29.77 "HgN/A
5:34 PM75 °FPartly sunny.3 mph74%29.77 "HgN/A
5:06 PM73 °FPartly sunny.3 mph78%29.77 "HgN/A
4:30 PM75 °FPartly sunny.3 mph69%29.77 "HgN/A
4:00 PM77 °FPartly sunny.6 mph69%29.77 "HgN/A
3:30 PM77 °FScattered clouds.5 mph65%29.77 "HgN/A
3:00 PM77 °FScattered clouds.6 mph69%29.80 "HgN/A
2:30 PM77 °FPassing clouds.5 mph69%29.80 "HgN/A
2:00 PM77 °FPassing clouds.5 mph69%29.80 "HgN/A
1:30 PM75 °FPassing clouds.3 mph74%29.83 "HgN/A
1:00 PM75 °FScattered clouds.3 mph74%29.83 "HgN/A
12:30 PM73 °FScattered clouds.No wind78%29.83 "HgN/A
12:00 PM72 °FScattered clouds.3 mph78%29.83 "HgN/A
Weather by CustomWeather, © 2015

See weather overviewHow to use our weather pages